Regional Weather Roundup
Issued by NWS Upton, NY

Current Version | Previous Version | Graphics & Text | Print | Product List | Glossary Off
Versions: 1 2 3 4 5 6 7 8 9 10 11 12 13 14 15 16 17 18 19 20 21 22 23 24 25 26 27 28 29 30 31 32 33 34 35 36 37 38 39 40 41 42 43 44 45 46 47 48 49 50

000
ASUS41 KOKX 300304
RWROKX

REGIONAL WEATHER ROUNDUP
NATIONAL WEATHER SERVICE NEW YORK NY
1100 PM EDT FRI JUL 29 2016

NOTE: "FAIR" INDICATES FEW OR NO CLOUDS BELOW 12,000 FEET WITH NO
SIGNIFICANT WEATHER AND/OR OBSTRUCTIONS TO VISIBILITY.

NYZ071-072-176-178-NJZ106-104-300400-
NEW YORK CITY METRO AREA

CITY           SKY/WX    TMP DP  RH WIND       PRES   REMARKS
Central Park   CLEAR     78  68  71 CALM      29.94R
LaGuardia APRT MOCLDY    79  68  69 SE7       29.92R
Kennedy INTL   PTCLDY    75  70  84 S7        29.93R
Newark/Liberty PTCLDY    77  70  79 S8        29.91R
Bronx Bot Gard   N/A     75  66  73 CALM      29.92F
Wall St Helipt PTCLDY    79  72  78 W5        29.93R
Teterboro      PTCLDY    77  69  76 SW3       29.91R
$$

NYZ177-179-078>081-300400-
LONG ISLAND NEW YORK

CITY           SKY/WX    TMP DP  RH WIND       PRES   REMARKS
Farmingdale    CLEAR     75  69  81 W6        29.92R
MacArthur/ISP  PTCLDY    73  69  87 S5        29.92R
Shirley        CLOUDY    72  70  93 W3        29.93R
Riverhead      NOT AVBL
Westhampton    CLOUDY    71  67  87 CALM      29.94R
Southhampton     N/A     72  68  88 SE1       29.88R
Bridgehampton    N/A     68  66  94 CALM      29.90S
East Hampton   MOCLDY    68  66  93 CALM      29.91R
Montauk          N/A     71  68  90 NW3       29.93R
$$

NYZ052-065-067-300400-
HUDSON VALLEY

CITY           SKY/WX    TMP DP  RH WIND       PRES   REMARKS
White Plains   CLEAR     73  68  84 S3        29.93S
Newburgh       PTCLDY    72  72 100 CALM      29.95R
Montgomery     CLEAR     70  69  97 CALM      29.93R FOG
Poughkeepsie   CLEAR     75  68  78 NE3       29.91R
Albany         MOCLDY    74  57  55 N10       29.96R
$$

NJZ001-105-106-008-010-013-015-019>022-104-300400-
NEW JERSEY

CITY           SKY/WX    TMP DP  RH WIND       PRES   REMARKS
Newark/Liberty PTCLDY    77  70  79 S8        29.91R
Teterboro      PTCLDY    77  69  76 SW3       29.91R
Caldwell       PTCLDY    74  70  87 CALM      29.93R
Morristown     CLOUDY    70  66  88 CALM      29.93R
Somerville     CLOUDY    74  70  87 N3        29.92R
Linden         FAIR      77  69  76 CALM      29.94R
Sussex         CLEAR     69  69 100 CALM      29.95R
Abdover          N/A     67  66  97 CALM      29.96R
Trenton        LGT RAIN  76  71  85 W10       29.93R
Millville      CLEAR     72  69  90 CALM      29.95R
Atlantic City  CLEAR     73  68  84 S5        29.93S
Wrightstown    MOCLDY    72  70  93 S6        29.91R
Toms River     CLEAR     71  69  93 W3        29.94R
Belmar         CLEAR     73  70  90 CALM      29.95R
$$

PAZ047>061-062-071-300400-
EASTERN PENNSYLVANIA

CITY           SKY/WX    TMP DP  RH WIND       PRES   REMARKS
Philadelphia   PTCLDY    78  72  81 SW7       29.94R
Allentown      PTCLDY    76  70  82 CALM      29.94R
Scranton       CLOUDY    75  65  70 E3        29.96R
$$

CTZ002-004>006-009-010-012-RIZ004-006-007-MAZ004-011-015-300400-
SOUTHERN NEW ENGLAND
 IN CT

CITY           SKY/WX    TMP DP  RH WIND       PRES   REMARKS
Bradley INTL   PTCLDY    73  67  81 N5        29.92R
Hartford       CLEAR     79  67  66 N5        29.90R
Danbury        PTCLDY    72  68  87 SW3       29.95R
Wtrbury/Oxford   N/A     70  66  88 CALM      29.95S
Bridgeport     CLEAR     76  69  79 SW3       29.91R
Meriden        PTCLDY    73  69  87 CALM      29.92R
New Haven      CLEAR     71  70  96 CALM      29.92R
Chester        FAIR      72  70  94 CALM      29.93R
Groton         MOCLDY    71  67  87 NE3       29.91S
Wilimantic     CLEAR     75  71  87 CALM      29.93R

 IN RI

CITY           SKY/WX    TMP DP  RH WIND       PRES   REMARKS
Providence     PTCLDY    73  66  78 NE6       29.91S
Block Island   NOT AVBL
Westerly       CLEAR     71  66  84 CALM      29.93R
 IN MA

CITY           SKY/WX    TMP DP  RH WIND       PRES   REMARKS
Boston         PTCLDY    75  68  78 N6        29.90S
Worchester     CLEAR     70  66  87 CALM      29.96R
Westfield      CLEAR     71  68  90 CALM      29.93R
Provincetown   MOCLDY    70  70 100 N7        29.90R FOG
Nantucket      CLEAR     66  63  90 NW3       29.88S
$$

ANZ330-335-338-340-345-350-353-355-300400-
COASTAL MARINE OBSERVATIONS


STATION/POSITION TIME  SKY/WX   TEMP    WIND        PRES    VSBY  WAVE
                                AIR SEA DIR/SP/G                  HT/PER
                 (UTC)          (F)     (DEG/KT/KT) (MB)    (MI)  (FT/S)
NY HARB ENTRANCE 0150            75 73  210/  8/ 10 1012.4          3/ 5
20S FIRE ISLAND  0150            73 74  170/  4/  4 1012.4          3/ 6
GREAT SOUTH BAY  0200            74 81  220/  6/  8   N/A
23 SSW MONTAUK P 0150            71 71  290/  2/  4 1013.0          3/ 5
15 E BARNEGAT LI 0200               78                N/A           3/ 6
HUDSON CANYON    0150            75 78              1012.2          5/ 6
KINGS POINT      0200            76 73              1012.6
EXECUTION ROCKS  0200            76      80/  8/ 12   N/A
CENTRAL LI SOUND 0200            75 75  190/  6/  8   N/A           1
EASTERN LI SOUND 0200            70 67  310/  4/  4   N/A
ROBBINS REEF     0212                   170/ 11/ 12 1012.3
$$


>>>>>>>>>>>>>>>>>>>>>>>>>>>> KEY <<<<<<<<<<<<<<<<<<<<<<<<<<<
>                                                          <
>     SKY/WX - Sky Condition/Present Weather               <
>     TMP    - Temperature in Fahrenheit                   <
>     DP     - Dew Point in Fahrenheit                     <
>     RH     - Relative Humidity in Percent                <
>     WIND   - Direction (from) and Speed in MPH           <
>     PRES   - Mean Sea Level Pressure (inches of Hg)      <
>     WCI    - Wind Chill Index                            <
>     VSB    - VISIBILITY IN MILES                         <
>     HX     - HEAT INDEX                                  <
>     TC     - TEMPERATURE IN CELSIUS                      <
>     VRB    - VARIABLE WIND DIRECTION                     <
>                                                          <
>>>>>>>>>>>>>>>>>>>>>>>>>>>> KEY <<<<<<<<<<<<<<<<<<<<<<<<<<<



USA.gov is the U.S. government's official web portal to all federal, state and local government web resources and services.